| time (UTC) | temp F | wind direction | speed knots | gust knots | rain 1hr in | rain 24hr in | rain mn in | humidity % | barometer mb |
| 20260504050143 | 52 | 321 | 0.0 | 0.0 | 0.00 | 0.00 | 0.00 | 87 | 1017.9 |
| 20260504044642 | 53 | 321 | 0.0 | 0.0 | 0.00 | 0.00 | 0.00 | 86 | 1017.8 |
| 20260504043142 | 53 | 321 | 0.0 | 0.0 | 0.00 | 0.00 | 0.00 | 87 | 1017.9 |
| 20260504041642 | 53 | 321 | 0.0 | 0.0 | 0.00 | 0.00 | 0.00 | 86 | 1017.9 |
| 20260504040141 | 54 | 321 | 0.0 | 0.0 | 0.00 | 0.00 | 0.00 | 86 | 1017.6 |
| 20260504034641 | 54 | 321 | 0.0 | 0.0 | 0.00 | 0.00 | 0.00 | 85 | 1017.7 |
| 20260504033141 | 54 | 321 | 0.0 | 0.0 | 0.00 | 0.00 | 0.00 | 84 | 1017.7 |
| 20260504030141 | 55 | 321 | 0.0 | 0.0 | 0.00 | 0.00 | 0.00 | 83 | 1017.9 |
| 20260504024640 | 56 | 321 | 0.0 | 0.0 | 0.00 | 0.00 | 0.00 | 81 | 1017.8 |
| 20260504023140 | 56 | 321 | 0.0 | 0.0 | 0.00 | 0.00 | 0.00 | 81 | 1017.7 |
| 20260504021640 | 57 | 321 | 0.0 | 0.0 | 0.00 | 0.00 | 0.00 | 78 | 1017.5 |
| 20260504020140 | 58 | 321 | 0.0 | 0.0 | 0.00 | 0.00 | 0.00 | 76 | 1017.3 |
| 20260504014639 | 59 | 321 | 0.0 | 0.0 | 0.00 | 0.00 | 0.00 | 74 | 1017.2 |
| 20260504013139 | 60 | 321 | 0.0 | 0.0 | 0.00 | 0.00 | 0.00 | 72 | 1017.0 |
| 20260504011639 | 61 | 321 | 0.0 | 0.0 | 0.00 | 0.00 | 0.00 | 68 | 1016.9 |
| 20260504010139 | 62 | 321 | 0.0 | 0.0 | 0.00 | 0.00 | 0.00 | 64 | 1016.6 |
| 20260504004638 | 64 | 321 | 0.0 | 0.0 | 0.00 | 0.00 | 0.00 | 60 | 1016.4 |
| 20260504003138 | 66 | 321 | 0.0 | 0.0 | 0.00 | 0.00 | 0.00 | 54 | 1016.3 |
| 20260504000137 | 69 | 317 | 0.0 | 0.0 | 0.00 | 0.00 | 0.00 | 47 | 1016.3 |
| 20260503234637 | 71 | 317 | 0.0 | 0.0 | 0.00 | 0.00 | 0.00 | 43 | 1016.1 |
| 20260503231637 | 73 | 349 | 0.0 | 4.3 | 0.00 | 0.00 | 0.00 | 40 | 1016.3 |
| 20260503230207 | 73 | 333 | 0.0 | 1.7 | 0.00 | 0.00 | 0.00 | 37 | 1016.2 |
| 20260503224636 | 74 | 340 | 0.0 | 0.0 | 0.00 | 0.00 | 0.00 | 36 | 1016.2 |
| 20260503223136 | 74 | 303 | 0.0 | 1.7 | 0.00 | 0.00 | 0.00 | 36 | 1016.1 |
| 20260503221636 | 75 | 302 | 0.0 | 1.7 | 0.00 | 0.00 | 0.00 | 35 | 1016.0 |
| 20260503220205 | 76 | 319 | 0.0 | 0.0 | 0.00 | 0.00 | 0.00 | 35 | 1016.2 |
| 20260503214705 | 77 | 349 | 0.0 | 4.3 | 0.00 | 0.00 | 0.00 | 33 | 1016.2 |
| 20260503213205 | 77 | 136 | 0.0 | 0.0 | 0.00 | 0.00 | 0.00 | 31 | 1016.4 |
| 20260503211705 | 77 | 220 | 0.0 | 0.0 | 0.00 | 0.00 | 0.00 | 30 | 1016.6 |
| 20260503204704 | 78 | 321 | 0.0 | 0.0 | 0.00 | 0.00 | 0.00 | 32 | 1016.8 |
| 20260503203204 | 77 | 335 | 1.7 | 1.7 | 0.00 | 0.00 | 0.00 | 30 | 1017.1 |
| 20260503201704 | 78 | 210 | 0.0 | 1.7 | 0.00 | 0.00 | 0.00 | 32 | 1017.1 |
| 20260503194703 | 77 | 6 | 0.0 | 1.7 | 0.00 | 0.00 | 0.00 | 33 | 1017.8 |
| 20260503191702 | 77 | 16 | 0.0 | 4.3 | 0.00 | 0.00 | 0.00 | 33 | 1018.4 |
| 20260503190202 | 76 | 15 | 1.7 | 2.6 | 0.00 | 0.00 | 0.00 | 34 | 1018.7 |
| 20260503183202 | 76 | 353 | 1.7 | 4.3 | 0.00 | 0.00 | 0.00 | 32 | 1019.1 |
| 20260503181701 | 75 | 348 | 2.6 | 4.3 | 0.00 | 0.00 | 0.00 | 33 | 1019.1 |
| 20260503180201 | 75 | 288 | 0.0 | 1.7 | 0.00 | 0.00 | 0.00 | 33 | 1019.2 |
| 20260503174701 | 75 | 340 | 9.6 | 9.6 | 0.00 | 0.00 | 0.00 | 35 | 1019.2 |
| 20260503170200 | 73 | 75 | 0.0 | 1.7 | 0.00 | 0.00 | 0.00 | 34 | 1019.8 |
| 20260503160159 | 72 | 25 | 5.2 | 7.8 | 0.00 | 0.01 | 0.00 | 37 | 1020.5 |
| 20260503150158 | 69 | 245 | 1.7 | 2.6 | 0.00 | 0.01 | 0.00 | 45 | 1020.8 |
| 20260503140157 | 65 | 282 | 0.0 | 0.0 | 0.00 | 0.01 | 0.00 | 59 | 1020.4 |
| 20260503130156 | 54 | 285 | 0.0 | 0.0 | 0.00 | 0.01 | 0.00 | 84 | 1019.7 |
| 20260503120155 | 44 | 331 | 0.0 | 0.0 | 0.00 | 0.01 | 0.00 | 95 | 1019.5 |
| 20260503100153 | 44 | 347 | 0.0 | 0.0 | 0.00 | 0.23 | 0.00 | 95 | 1018.6 |
| 20260503090153 | 44 | 347 | 0.0 | 0.0 | 0.00 | 0.27 | 0.00 | 95 | 1018.1 |
| 20260503080152 | 45 | 347 | 0.0 | 0.0 | 0.00 | 0.50 | 0.00 | 95 | 1017.6 |
| 20260503060150 | 47 | 347 | 0.0 | 0.0 | 0.00 | 0.97 | 0.00 | 94 | 1017.6 |